Retour au catalogue

FENGYUN 1C DEB

ActifSSO
NORAD 38783·DEBRIS·🇨🇳 China

Lancé May 10, 1999 depuis Taiyuan Satellite Launch Center

Loading…

Prochains Passages (prochaines 24 heures)

TLE

PériméSource: Space-Track

Époque: Aug 19, 2026, 12:04 UTC

1 38783U 99025ETX 26231.50293578  .00007581  00000-0  10392-2 0  9995
2 38783  98.3324 313.4721 0208671  65.2669 297.0094 14.64758092835912

Suivez FENGYUN 1C DEB en temps réel avec AllMySat

Download on the App Store